Tracking 28794 objects as of 19-Apr-2024
HD Live streaming from Space Station
objects crossing your sky now

ARIANE 44LP DEB

Track ARIANE 44LP DEB now!


NORAD ID: 25539
Int'l Code: 1988-109F
Perigee: 457.6 km
Apogee: 30,313.4 km
Inclination: 7.2 °
Period: 532.3 minutes
Semi major axis: 21756 km
RCS: 0.804 m2 (medium)
Launch date: December 11, 1988
Source: France (FR)
Launch site: FRENCH GUIANA (FRGUI)

Note: This is SATELLITE DEBRIS
Your satellite tracking list
Your tracking list is empty




NASA's NSSDC Master Catalog

Two Line Element Set (TLE):
1 25539U 88109F   24110.29165284  .00003251  00000-0  11429-1 0  9994
2 25539   7.2453 349.9333 6861369 183.9135 164.4691  2.70532975239229
Source of the keplerian elements: AFSPC